Regional Weather Roundup
Issued by NWS Grand Forks, ND

Home | Current Version | Previous Version | Graphics & Text | Print | Product List | Glossary On
Versions: 1 2 3 4 5 6 7 8 9 10 11 12 13 14 15 16 17 18 19 20 21 22 23 24 25 26 27 28 29 30 31 32 33 34 35 36 37 38 39 40 41 42 43 44 45 46 47 48 49 50
502
ASUS43 KFGF 131210
RWRFGF
PRAIRIE TO PINES  WEATHER ROUNDUP
NATIONAL WEATHER SERVICE EASTERN NORTH DAKOTA/GRAND FORKS ND
600 AM CST SAT FEB 13 2016

 **SATELLITE DATA USED TO AUGMENT SKY COVER AT AUTOMATED STATIONS**
 *****  WEATHER ACROSS EASTERN NORTH DAKOTA  *****

CITY           SKY/WX    TMP DP  RH WIND       PRES   REMARKS
GRAND FORKS    CLOUDY    -7 -13  75 SE7       30.57F WCI -21
6HR MIN TEMP:  -9; 6HR MAX TEMP:  -7;

GRAND FRKS AFB CLOUDY    -9 -15  74 S7        30.55F WCI -23
DEVILS LAKE    CLOUDY    -7 -12  79 SE12      30.44F WCI -26
6HR MIN TEMP: -17; 6HR MAX TEMP:  -7;

FARGO          CLOUDY    -6 -13  71 SE7       30.59F WCI -20
WAHPETON ARPT  CLOUDY    -6 -11  77 SE5       30.60F WCI -17
$$

 ***** WEATHER ACROSS CENTRAL AND WESTERN NORTH DAKOTA  *****

CITY           SKY/WX    TMP DP  RH WIND       PRES   REMARKS
BISMARCK       CLOUDY     9   0  67 SE14      30.33F WCI  -7
6HR MIN TEMP:   5; 6HR MAX TEMP:  10;

MINOT          FLURRIES   9  -3  58 E13       30.27F WCI  -7
6HR MIN TEMP:   5; 6HR MAX TEMP:   9; 6HR PCP: TRACE;

JAMESTOWN      CLOUDY    -3 -10  72 SE13      30.44F WCI -22
6HR MIN TEMP:  -8; 6HR MAX TEMP:  -3;

MINOT AFB      CLOUDY     7  -1  67 SE15      30.27F WCI -10
GARRISON         N/A      7   2  80 SE14      30.25F WCI -10
WILLISTON      CLOUDY    14   8  77 SE13G21   30.10F WCI   0
6HR MIN TEMP:  12; 6HR MAX TEMP:  14; 6HR PCP:  0.04;

DICKINSON      CLOUDY    11   7  84 SE23G33   30.07F WCI  -9
6HR MIN TEMP:  10; 6HR MAX TEMP:  12; 6HR PCP: TRACE;

HETTINGER      CLOUDY    13  10  88 SE18G26   30.14F WCI  -4
6HR MIN TEMP:  12; 6HR MAX TEMP:  14; 6HR PCP: TRACE;

$$

 *****  OTHER AIRPORT OBSERVATIONS IN OUR AREA  *****

CITY           SKY/WX    TMP DP  RH WIND       PRES   REMARKS
WALHALLA       FAIR     -13 -18  77 S3        30.53F
GRAFTON AIRPOR FAIR     -11 -15  84 SE7       30.59F WCI -26
VALLEY CITY AR CLOUDY    -6 -11  77 SE7       30.50F WCI -20
CANDO          NOT AVBL
CAVALIER APRT  FAIR      -9 -13  84 S6        30.55F WCI -23
GWINNER        FAIR      -2  -8  78 SE10      30.53S WCI -19
SHEYENNE NWR     N/A     -8 -15  72 SE3       29.95S
ROLLA          FAIR      -9 -17  70 S12       30.36F WCI -29
 ***** THE ABOVE OBSERVATIONS ARE NON NWS ARE NOT QUALITY
       CONTROLLED AND MAY MIS-REPORT RAIN FOR SNOW...
$$

  *****  WEATHER ACROSS NORTHERN MINNESOTA  *****

CITY           SKY/WX    TMP DP  RH WIND       PRES   REMARKS
FLAG ISLAND    CLOUDY   -24 -27  83 CALM      30.55S
WARROAD        PTCLDY   -24 -29  76 SW5       30.55S WCI -38
ROSEAU         CLOUDY   -22 -27  76 CALM      30.56F
HALLOCK        CLOUDY   -15 -20  76 SE8       30.56F WCI -32
THF RVR FALLS  CLOUDY   -17 N/A N/A SE5       30.55F WCI -29
6HR MIN TEMP: -18; 6HR MAX TEMP: -11;

BAUDETTE       CLOUDY   -23 -30  70 CALM      30.53F
6HR MIN TEMP: -24; 6HR MAX TEMP: -17;

WASKISH        CLOUDY   -24 -27  83 CALM      30.54F
CROOKSTON      CLOUDY   -11 -17  77 SE7       30.60S WCI -26
STEPHEN NDAWN    N/A    -13 -18  77 SE6         N/A  WCI -27
GREENBUSH NDAW   N/A    -22 -27  76 S3          N/A
$$
  *****  WEATHER ACROSS CENTRAL AND WEST MINNESOTA  *****

CITY           SKY/WX    TMP DP  RH WIND       PRES   REMARKS
FOSSTON          N/A    -27 -35  68 CALM      30.55S
BEMIDJI        CLOUDY   -25 -30  77 CALM      30.53F
PARK RAPIDS    CLOUDY   -22 -29  70 W5        30.53S WCI -36
6HR MIN TEMP: -22; 6HR MAX TEMP: -15;

ELBOW LAKE     FAIR      -8 -13  79 CALM      30.57F
6HR MIN TEMP:  -8; 6HR MAX TEMP:  -6;

WADENA         CLOUDY   -17 -22  76 CALM      30.55S
DETROIT LAKES  CLOUDY   -15 -20  76 CALM      30.54S
MOORHEAD       CLOUDY    -8 -13  77 S3        30.61R
FERGUS FALLS   CLOUDY    -9 -15  77 CALM      30.62F
MORRIS MN      CLOUDY    -8 -11  84 CALM      30.57F
STAPLES        CLOUDY   -18 -24  76 CALM      30.56F
$$
  *****  WEATHER ELSEWHERE ACROSS MINNESOTA  *****

CITY           SKY/WX    TMP DP  RH WIND       PRES   REMARKS
DULUTH         CLOUDY   -16 -22  74 NW9       30.49S WCI -35
6HR MIN TEMP: -16; 6HR MAX TEMP:  -9;

INTRNTL FALLS  CLOUDY   -22 -27  77 CALM      30.54F
6HR MIN TEMP: -24; 6HR MAX TEMP: -15;

ELY            CLOUDY   -26 -29  83 CALM      30.50S
CLOQUET        CLOUDY   -15 -22  70 NW8       30.52S WCI -32
WHEATON        CLOUDY    -6  -9  84 SE5       30.61F WCI -17
BRAINERD       PTCLDY   -21 -26  77 CALM      30.57F
6HR MIN TEMP: -21; 6HR MAX TEMP:  -9;

HIBBING        CLOUDY   -20 -24  82 NW3       30.52F
6HR MIN TEMP: -21; 6HR MAX TEMP: -12;

ALEXANDRIA     CLOUDY   -14 -20  74 CALM      30.55F
6HR MIN TEMP: -14; 6HR MAX TEMP:  -9;

SAINT CLOUD    PTCLDY   -12 -18  74 CALM      30.60F
6HR MIN TEMP: -13; 6HR MAX TEMP:  -6;

MINNEAPOLIS    PTCLDY    -6 -13  71 NW3       30.63F
6HR MIN TEMP:  -6; 6HR MAX TEMP:   0;

$$

  *****  WEATHER ACROSS SOUTH DAKOTA  *****

CITY           SKY/WX    TMP DP  RH WIND       PRES   REMARKS
SIOUX FALLS    CLOUDY     0  -8  69 SE6       30.55S WCI -12
6HR MIN TEMP:  -5; 6HR MAX TEMP:   1;

BROOKINGS      CLOUDY    -3 -11  68 SE7       30.51F WCI -16
WATERTOWN      CLOUDY    -1 -11  62 SE9       30.47F WCI -16
6HR MIN TEMP:  -9; 6HR MAX TEMP:  -1;

HURON          CLOUDY     6  -4  63 SE9       30.48F WCI  -8
6HR MIN TEMP:   2; 6HR MAX TEMP:   6;

SISSETON         N/A     -4 -10  75 S9        30.56F WCI -20
ABERDEEN       CLOUDY     4  -7  60 SE8       30.48F WCI  -9
6HR MIN TEMP:  -1; 6HR MAX TEMP:   4;

MITCHELL       CLOUDY     8   0  69 SE15      30.52F WCI  -9
PIERRE         CLOUDY    13   7  77 SE23G30   30.30F WCI  -6
6HR MIN TEMP:  11; 6HR MAX TEMP:  13; 6HR PCP: TRACE;

MOBRIDGE       CLOUDY     8  -1  66 SE20      30.30F WCI -11
RAPID CITY     CLOUDY    29  26  89 SE9       30.05F WCI  20
6HR MIN TEMP:  24; 6HR MAX TEMP:  29;

$$

  *****  SOME WEATHER IN NEARBY STATES *****

CITY           SKY/WX    TMP DP  RH WIND       PRES   REMARKS
GLASGOW MT     CLOUDY    17  13  84 E16       29.94F WCI   2
6HR MIN TEMP:  17; 6HR MAX TEMP:  18;

GREAT FALLS MT CLOUDY    42  32  67 W13       29.88R
6HR MIN TEMP:  33; 6HR MAX TEMP:  43;

CHEYENNE WY    CLOUDY    39  23  52 W9        30.07F
6HR MIN TEMP:  30; 6HR MAX TEMP:  39;

SCOTTSBLUFF NE CLOUDY    30  28  92 SE9       30.09F WCI  22
6HR MIN TEMP:  30; 6HR MAX TEMP:  33;

OMAHA NE       CLOUDY     9   0  67 E5        30.63S WCI   1
6HR MIN TEMP:   9; 6HR MAX TEMP:  13;

DES MOINES IA  CLOUDY     4  -5  66 N5        30.63S WCI  -5
6HR MIN TEMP:   2; 6HR MAX TEMP:   5;

DAVENPORT IA     N/A    N/A N/A N/A MISG      30.62S
6HR MIN TEMP:   0; 6HR MAX TEMP:   7;

CHICAGO IL     PTCLDY     3 -10  54 NW13      30.55R WCI -14
6HR MIN TEMP:   3; 6HR MAX TEMP:   7;

EAU CLAIRE WI  PTCLDY   -10 -16  74 CALM      30.60S
6HR MIN TEMP: -11; 6HR MAX TEMP:  -1;

LA CROSSE WI   CLOUDY    -6 -17  59 N7        30.63S WCI -20
6HR MIN TEMP:  -7; 6HR MAX TEMP:   0;

$$

  *****  SOME NATIONAL WEATHER *****

CITY           SKY/WX    TMP DP  RH WIND       PRES   REMARKS
LA GUARDIA NY  PTCLDY    23  11  60 NW18G28   29.92R WCI   9
6HR MIN TEMP:  22; 6HR MAX TEMP:  23;

RALEIGH NC     PTCLDY    30   9  41 NW7       30.19R WCI  23
6HR MIN TEMP:  27; 6HR MAX TEMP:  34;

ATLANTA GA     CLEAR     30  17  58 NW17G25   30.27R WCI  18
6HR MIN TEMP:  30; 6HR MAX TEMP:  39;

NEW ORLEANS LA PTCLDY    51  32  48 NE12      30.37R
6HR MIN TEMP:  51; 6HR MAX TEMP:  59;

OKLAHOMA CITY  CLEAR     32  21  64 E10       30.42R WCI  24
6HR MIN TEMP:  32; 6HR MAX TEMP:  40;

ALBUQUERQUE NM CLOUDY    32  18  56 CALM      30.30S
6HR MIN TEMP:  32; 6HR MAX TEMP:  50;

SALT LAKE CITY CLOUDY    30  27  88 N5        30.27S FOG
6HR MIN TEMP:  28; 6HR MAX TEMP:  30;

LOS ANGELES CA FOG       52  51  97 W7        30.08S VSB 1/4
6HR MIN TEMP:  52; 6HR MC1F1C2F2C3F3C4F4C5F5C6F6C7F7C8F8C9F9CaFaCbFbCcFcCd!



USA.gov is the U.S. government's official web portal to all federal, state and local government web resources and services.